Flag for U.S.A. Weather past 2 weeks in Albuquerque, New Mexico, U.S.A.

Now
81 °F

Passing clouds.


Feels Like: 80 °F
Forecast: 69 / 96 °F
Wind: 7 mph from Southeast

Location: Albuquerque International Airport

Current Time: Jul 24, 2014 at 10:28:25 PM

Latest Report: Jul 24, 2014 at 9:52 PM


Visibility: 10 mi

Pressure: 29.90 "Hg

Humidity: 27%

Dew point: 44 °F

Location of AlbuquerqueLocation

Historic Weather in Albuquerque — Graph

°F

Albuquerque temperature yesterday

Maximum temperature yesterday: 89 °F (at 6:52 PM)
Minimum temperature yesterday: 69 °F (at 5:52 AM)
Average temperature yesterday: 79 °F

Past Weeks' High & Low Weather Summary

 TemperatureHumidityPressure
High94 °F (Jul 20, 3:52 PM)87% (Jul 15, 5:52 AM)30.36 "Hg (Jul 15, 5:52 AM)
Low62 °F (Jul 15, 7:52 AM)14% (Jul 18, 5:52 PM)29.73 "Hg (Jul 17, 5:52 PM)
Average78 °F44%29.93 "Hg
* Reported Jul 9 8:52 PM — Jul 24 8:52 PM, Albuquerque, Weather by CustomWeather, © 2014

Note: Actual official high and low records may vary slightly from our data, if they occured in-between our weather recording intervals... More about our weather records

Advertising

Albuquerque weather history for previous 24 hours

 ConditionsComfort  
Time TempWeatherWind HumidityBarometerVisibility
8:52 PM
Jul 24
86 °FPassing clouds.9 mph20%29.88 "Hg10 mi
7:52 PM88 °FPassing clouds.9 mph17%29.87 "Hg10 mi
6:52 PM90 °FScattered clouds.13 mph16%29.87 "Hg10 mi
5:52 PM91 °FScattered clouds.13 mph17%29.88 "Hg10 mi
4:52 PM91 °FPassing clouds.10 mph15%29.89 "Hg10 mi
3:52 PM91 °FPassing clouds.10 mph17%29.92 "Hg10 mi
2:52 PM90 °FPassing clouds.6 mph16%29.94 "Hg10 mi
1:52 PM89 °FPassing clouds.14 mph21%29.96 "Hg10 mi
12:52 PM88 °FPassing clouds.10 mph22%29.99 "Hg10 mi
11:52 AM85 °FPassing clouds.5 mph27%30.01 "Hg10 mi
10:52 AM83 °FPassing clouds.8 mph30%30.04 "Hg10 mi
9:52 AM80 °FPassing clouds.5 mph34%30.06 "Hg10 mi
8:52 AM77 °FPassing clouds.3 mph40%30.07 "Hg10 mi
7:52 AM73 °FScattered clouds.6 mph50%30.06 "Hg10 mi
6:52 AM69 °FPassing clouds.7 mph57%30.05 "Hg10 mi
5:52 AM70 °FPassing clouds.5 mph57%30.04 "Hg10 mi
4:52 AM72 °FPassing clouds.6 mph52%30.03 "Hg10 mi
3:52 AM73 °FPassing clouds.5 mph50%30.03 "Hg10 mi
2:52 AM76 °FPassing clouds.No wind37%30.02 "Hg10 mi
1:52 AM75 °FPassing clouds.6 mph40%30.04 "Hg10 mi
12:52 AM77 °FPassing clouds.7 mph37%30.05 "Hg10 mi
11:52 PM
Jul 23
78 °FPassing clouds.9 mph35%30.04 "Hg10 mi
10:52 PM78 °FPassing clouds.8 mph35%30.04 "Hg10 mi
Weather by CustomWeather, © 2014

See weather overviewHow to use our weather pages